Hourly Weather Roundup
Issued by NWS Central Illinois

Home | Current Version | Previous Version | Text Only | Print | Product List | Glossary On
Versions: 1 2 3 4 5 6 7 8 9 10 11 12 13 14 15 16 17 18 19 20 21 22 23 24 25 26 27 28 29 30 31 32 33 34 35 36 37 38 39 40 41 42 43 44 45 46 47 48 49 50
000
NZUS43 KILX 191810
HWRILX

Area Weather Roundup
National Weather Service Lincoln IL
1200 PM CST SUN NOV 19 2017

NOTE:  "FAIR" indicates few or no clouds below 12,000 feet, with
       no sigificant weather and/or obstructions to visibility.


CITY           SKY/WX    TMP DP  RH WIND       PRES   REMARKS
Bloomington    SUNNY     33  19  56 W18       30.14S WCI  22
6HR MIN TEMP:  24; 6HR MAX TEMP:  35;

Champaign      SUNNY     33  23  66 W18       30.13S WCI  22
6HR MIN TEMP:  28; 6HR MAX TEMP:  34;

Danville       PTSUNNY   29  22  74 W12G17    30.09S WCI  20
6HR MIN TEMP:  28; 6HR MAX TEMP:  31;

Decatur        SUNNY     33  19  56 NW13      30.17S WCI  24
6HR MIN TEMP:  26; 6HR MAX TEMP:  34;

Effingham      SUNNY     37  25  62 W14G21    30.20R WCI  28
6HR MIN TEMP:  30; 6HR MAX TEMP:  37;

Flora          SUNNY     38  22  54 NW13G18   30.14S WCI  30
6HR MIN TEMP:  32; 6HR MAX TEMP:  38;

Galesburg      CLOUDY    32  20  61 W12       30.18F WCI  23
6HR MIN TEMP:  22; 6HR MAX TEMP:  32;

Jacksonville   MOSUNNY   34  18  52 W12G18    30.20F WCI  26
6HR MIN TEMP:  26; 6HR MAX TEMP:  35; 6HR PCP:  0.02;

Lacon          SUNNY     33  18  53 NW14G21   30.14F WCI  23
6HR MIN TEMP:  24; 6HR MAX TEMP:  33;

Lawrenceville  MOSUNNY   37  24  59 NW14      30.15F WCI  28
6HR MIN TEMP:  33; 6HR MAX TEMP:  38;

Litchfield     SUNNY     35  20  54 W16G22    30.21S WCI  25
6HR MIN TEMP:  28; 6HR MAX TEMP:  35;

$$


CITY           SKY/WX    TMP DP  RH WIND       PRES   REMARKS
Lincoln        SUNNY     33  20  57 W8G17     30.17F WCI  27
6HR MIN TEMP:  27; 6HR MAX TEMP:  34;

Macomb         PTSUNNY   33  18  55 NW16      30.21F WCI  22
6HR MIN TEMP:  24; 6HR MAX TEMP:  33;

Mattoon        MOSUNNY   34  24  67 W18G25    30.15R WCI  23
6HR MIN TEMP:  28; 6HR MAX TEMP:  34;

Mt Carmel AP   MOSUNNY   37  25  61 W12       30.15F WCI  29
6HR MIN TEMP:  32; 6HR MAX TEMP:  37;

Olney-Noble AP SUNNY     36  19  50 W12G17    30.17F WCI  28
Paris AP       CLOUDY    31  25  77 W16G22    30.15R WCI  20
6HR MIN TEMP:  30; 6HR MAX TEMP:  32;

Peoria         MOSUNNY   33  16  49 NW9       30.16F WCI  25
6HR MIN TEMP:  24; 6HR MAX TEMP:  33;

Pontiac        MOSUNNY   32  24  72 W17G23    30.13S WCI  21
6HR MIN TEMP:  27; 6HR MAX TEMP:  32;

Rantoul        MOSUNNY   33  26  73 W14       30.12F WCI  24
6HR MIN TEMP:  29; 6HR MAX TEMP:  33;

Robinson       MOSUNNY   35  24  62 W10       30.16F WCI  27
6HR MIN TEMP:  31; 6HR MAX TEMP:  35;

Springfield    SUNNY     35  19  52 NW14      30.19F WCI  26
6HR MIN TEMP:  27; 6HR MAX TEMP:  36;

Taylorville    SUNNY     33  20  58 W16       30.20F WCI  22
6HR MIN TEMP:  27; 6HR MAX TEMP:  33;

$$

...REGIONAL REPORTS...


CITY           SKY/WX    TMP DP  RH WIND       PRES   REMARKS
Chicago O`Hare MOSUNNY   33  19  56 W18       30.04S WCI  22
Kankakee       MOSUNNY   32  23  69 W20       30.10S WCI  20
Moline         CLOUDY    32  13  45 W15       30.14F WCI  22
Mount Sterling MOSUNNY   34  18  52 W14       30.20F WCI  24
Mount Vernon   SUNNY     37  21  52 W8G17     30.20F WCI  31
Pittsfield     SUNNY     37  17  43 W12G18    30.23F WCI  29
Quincy         SUNNY     36  17  46 NW10      30.20F WCI  28
Rockford       MOSUNNY   32  15  49 NW13      30.09F WCI  22
$$


CITY           SKY/WX    TMP DP  RH WIND       PRES   REMARKS
Burlington     PTSUNNY   34  15  46 W10       30.19F WCI  26
Cedar Rapids   PTSUNNY   34  19  54 W12       30.14F WCI  25
Des Moines     MOSUNNY   41  20  43 SW9       30.15F
Kirksville     SUNNY     39  21  48 W3        30.22F
Ottumwa        SUNNY     37  20  50 W10       30.18F WCI  30
St Louis       MOSUNNY   40  21  46 NW14G23   30.24F WCI  32
$$


CITY           SKY/WX    TMP DP  RH WIND       PRES   REMARKS
Terre Haute    CLOUDY    33  23  66 W9        30.13F WCI  25
Evansville     SUNNY     39  24  55 W12       30.16F WCI  32
Indianapolis   PTSUNNY   33  23  66 W20       30.07S WCI  21
Lafayette      CLOUDY    30  23  75 W13G21    30.08S WCI  20
Madison        MOSUNNY   29  12  49 VRB7G17   30.04F WCI  22
Milwaukee      MOSUNNY   32  15  49 W14G29    30.01R WCI  22
$$






USA.gov is the U.S. government's official web portal to all federal, state and local government web resources and services.